Regional Weather Roundup
Issued by NWS

Home | Current Version | Previous Version | Text Only | Print | Product List | Glossary Off
Versions: 1 2 3 4 5 6 7 8 9 10 11 12 13 14 15 16 17 18 19 20 21 22 23 24 25 26 27 28 29 30 31 32 33 34 35 36 37 38 39 40 41 42 43 44 45 46 47 48 49 50

430
ASUS45 KCYS 061710
RWRWY

WYOMING REGIONAL WEATHER ROUNDUP
NATIONAL WEATHER SERVICE CHEYENNE WY
1000 AM MST TUE DEC 06 2016

NOTE:  "FAIR" INDICATES FEW OR NO CLOUDS BELOW 12,000 FEET
WITH NO SIGNIFICANT WEATHER AND/OR OBSTRUCTIONS TO VISIBILITY.

WYZ001-061800-
YELLOWSTONE NATIONAL PARK

CITY           SKY/WX    TMP DP  RH WIND       PRES   REMARKS
LK YELLOWSTONE   N/A      2  -2  83 VRB3      29.76S
W YELLOWSTONE  NOT AVBL

$$
WYZ002>013-054>058-071-098>099-061800-
NORTHERN WYOMING

CITY           SKY/WX    TMP DP  RH WIND       PRES   REMARKS
JACKSON        FAIR     -11 -15  84 CALM      29.88F
CODY           FAIR      15   6  67 CALM      29.94R
GREYBULL       FAIR      10   4  76 SE6       30.01S WCI   0
WORLAND        FAIR      10   3  73 CALM      29.99R
SHERIDAN       CLOUDY     9   2  73 NW12      30.04R WCI  -6
BUFFALO        CLOUDY     7   2  80 CALM      29.97R
GILLETTE       FAIR       4   1  88 W8        29.99S WCI  -9
HULETT         FAIR       5   0  78 W9        30.00R WCI  -9
NEWCASTLE      FAIR       9   1  72 NW15      30.00S WCI  -8

$$
WYZ014>020-022>026-101>103-061800-
CENTRAL WYOMING

CITY           SKY/WX    TMP DP  RH WIND       PRES   REMARKS
BIG PINEY      FAIR      -6 -10  83 CALM      29.85F
PINEDALE       PTSUNNY   -8 -15  71 NW15      29.85F WCI -29
DUBOIS         FAIR       3  -9  55 W10       29.77S WCI -12
LANDER         FAIR       9  -5  53 NE5       29.88S WCI   1
RIVERTON       FAIR       9  -5  53 E3        29.90F
CASPER         FAIR       6  -4  63 SW7       29.92S WCI  -6
DOUGLAS        FAIR       2  -1  88 CALM      29.98R

$$
WYZ021-027>030-104>119-061800-
SOUTHERN WYOMING

CITY           SKY/WX    TMP DP  RH WIND       PRES   REMARKS
EVANSTON       CLOUDY     7  -8  50 E10       29.78S WCI  -8
KEMMERER         N/A      1  -8  66 N7        29.80F WCI -11
FORT BRIDGER   CLOUDY     1  -6  74 CALM      29.85F
ROCK SPRINGS   FAIR       2  -8  63 CALM      29.85S
DIXON          CLOUDY     9  -8  44 E9        29.90F WCI  -4
RAWLINS        FAIR       6  -8  52 VRB3      29.87F
SARATOGA       FAIR       5  -9  51 S9        29.86F WCI  -9
LARAMIE        FAIR       7 -10  46 S7        29.83S WCI  -5
CHEYENNE       FAIR      19 -17  19 W8        29.89S WCI   9
TORRINGTON     FAIR      17   2  51 NW10      30.00R WCI   5
PINE BLUFFS    FAIR      19  -6  32 W9G24     29.95S WCI   9

$$




USA.gov is the U.S. government's official web portal to all federal, state and local government web resources and services.